[[{"header":{"parameterUnit":"m.s-1","parameterCategory":1,"la1":30.2992,"la2":30.254,"lo1":-89.0895,"lo2":-89.0443,"dy":0.0025,"dx":0.0025,"nx":19,"ny":19,"refTime":"2026-03-10T09:00:00:Z","depth":0,"parameterNumber":2,"parameterNumberName":"U-component_of_WINDS"},"data":[0,0,0,-1.9743,-1.9744,-1.9786,-1.9786,-1.9848,-1.9849,0,0,0,0,0,0,0,0,0,0,0,-1.9734,-1.9735,-1.9743,-1.9744,-1.9786,-1.9786,-1.9848,-1.9849,0,0,0,0,0,0,0,0,0,0,0,-1.9734,-1.9735,-1.9735,-1.9744,-1.9786,-1.9786,-1.9848,-1.9814,0,0,0,0,0,0,0,0,0,0,-1.9772,-1.9767,-1.9735,-1.9735,-1.9745,-1.9786,-1.9786,-1.9812,-1.9816,-1.9833,0,-1.9847,0,-1.9849,-1.9854,-1.9854,0,0,0,-1.9742,-1.9763,-1.9771,-1.9736,-1.9745,-1.9786,-1.9767,-1.9814,-1.9819,-1.9838,-1.9848,-1.985,-1.985,-1.9854,-1.9854,-1.9956,-1.9956,0,0,-1.9739,-1.9744,-1.9768,-1.9774,-1.9767,-1.9765,-1.9768,-1.9817,-1.9828,-1.9848,-1.9851,-1.9851,-1.9854,-1.9855,-1.9955,-1.9956,0,0,0,-1.9734,-1.9743,-1.9749,-1.9772,-1.9779,-1.9767,-1.977,-1.9826,-1.9828,-1.9852,-1.9852,-1.9855,-1.9856,-1.9954,-1.9955,-1.9988,0,0,0,-1.9733,-1.974,-1.9748,-1.9752,-1.9778,-1.9803,-1.9778,-1.9825,-1.983,-1.9851,-1.9855,-1.9856,-1.9954,-1.9955,-1.9986,-2.0002,0,0,0,-1.973,-1.9739,-1.9746,-1.9752,-1.977,-1.9802,-1.9806,-1.9826,-1.983,-1.9854,-1.9857,-1.9953,-1.9955,-1.9984,-1.9999,-2.003,0,0,0,-1.9729,-1.9775,-1.9747,-1.9799,-1.977,-1.9822,-1.9806,-1.9845,-1.9869,-1.9855,-1.9954,-1.9955,-1.9983,-1.9997,-2.0028,-2.0056,-2.0068,0,0,-1.979,-1.9783,-1.9813,-1.9789,-1.9847,-1.9815,-1.9879,-1.9897,-1.9896,-1.9936,-1.9939,-1.9986,-1.9999,-2.0029,-2.0138,-2.0148,0,0,0,-1.9834,-1.9855,-1.987,-1.9893,-1.9908,-1.9922,-1.993,-1.9938,-1.9971,-1.9917,-2.0006,-2.0014,-2.0031,-2.0045,-2.0053,-2.0068,-1.9962,-1.9962,-1.9962,-1.9925,-1.9921,-1.997,-1.9971,-1.9994,-2.0003,-2.0021,-2.0033,-2.0022,-2.0044,-2.0055,-2.0121,-2.0137,-2.0143,-2.0159,-2.007,-2.0071,-2.0071,-2.0071,-2.0012,-2.0042,-2.0027,-2.007,-2.0066,-2.0102,-2.0114,-2.0105,-2.0139,-2.0112,-2.0127,-2.0097,-2.0154,-2.0167,-2.0073,-2.0073,-2.0072,-2.0072,-2.0072,-2.0071,-2.0084,-2.0092,-2.0126,-2.0152,-2.0153,-2.0186,-2.0182,-2.0178,-2.0194,-2.0205,-2.0205,-2.0203,-2.02,-2.02,-2.02,-2.0201,-2.0201,-2.0201,-2.0127,-2.0135,-2.0163,-2.0184,-2.0199,-2.0218,-2.0229,-2.0244,-2.0259,-2.0253,-2.0253,-2.0241,-2.016,-2.014,-2.0204,-2.0204,-2.0203,-2.0203,-2.0203,-2.0215,-2.0195,-2.0238,-2.0253,-2.0278,-2.0305,-2.03,-2.0331,-2.0343,-2.036,-2.0345,-2.0286,-2.0279,-2.0272,-2.0255,-2.0345,-2.0345,-2.0345,-2.0345,-2.0263,-2.026,-2.0303,-2.0327,-2.0351,-2.0351,-2.0401,-2.0411,-2.0418,-2.0425,-2.0412,-2.039,-2.0383,-2.0379,-2.037,-2.0354,-2.0468,-2.0468,-2.0468,-2.0317,-2.0316,-2.0358,-2.0364,-2.0384,-2.0401,-2.0448,-2.0478,-2.0482,-2.0473,-2.0431,-2.0426,-2.0389,-2.0378,-2.0365,-2.0352,-2.0322,0,0]},{"header":{"parameterUnit":"m.s-1","parameterCategory":1,"la1":30.2992,"la2":30.254,"lo1":-89.0895,"lo2":-89.0443,"dy":0.0025,"dx":0.0025,"nx":19,"ny":19,"refTime":"2026-03-10T09:00:00:Z","depth":0,"parameterNumber":3,"parameterNumberName":"V-component_of_WINDS"},"data":[0,0,0,2.1152,2.1151,2.1116,2.1116,2.1062,2.1061,0,0,0,0,0,0,0,0,0,0,0,2.1155,2.1155,2.1152,2.1151,2.1116,2.1116,2.1062,2.1061,0,0,0,0,0,0,0,0,0,0,0,2.1156,2.1155,2.1154,2.115,2.1116,2.1116,2.1062,2.1092,0,0,0,0,0,0,0,0,0,0,2.1127,2.1124,2.1155,2.1154,2.115,2.1116,2.1116,2.1093,2.109,2.1073,0,2.1056,0,2.1058,2.1057,2.1057,0,0,0,2.1155,2.1127,2.1124,2.1154,2.115,2.1116,2.1133,2.1091,2.1087,2.1068,2.1056,2.1054,2.1057,2.1056,2.1056,2.0947,2.0946,0,0,2.1157,2.1145,2.1126,2.1121,2.1125,2.1134,2.1132,2.1089,2.1074,2.1055,2.1053,2.1056,2.1056,2.1055,2.0948,2.0947,0,0,0,2.1159,2.1146,2.1145,2.1123,2.1117,2.1133,2.113,2.1076,2.1077,2.1052,2.1055,2.1056,2.1055,2.0949,2.0948,2.0903,0,0,0,2.1161,2.1148,2.1145,2.1138,2.1118,2.1096,2.1118,2.108,2.1075,2.1056,2.1056,2.1054,2.0949,2.0948,2.0906,2.0883,0,0,0,2.116,2.1148,2.1141,2.1137,2.1122,2.1097,2.1095,2.1079,2.1077,2.1057,2.1054,2.095,2.0948,2.0908,2.0888,2.0854,0,0,0,2.1155,2.1099,2.114,2.1079,2.1122,2.1069,2.1096,2.1056,2.1034,2.1055,2.0949,2.0948,2.0909,2.089,2.0856,2.0824,2.0809,0,0,2.1078,2.1089,2.1054,2.109,2.1028,2.1076,2.1007,2.0995,2.1003,2.0966,2.0963,2.0905,2.0888,2.0854,2.0726,2.0714,0,0,0,2.1026,2.1001,2.0987,2.0966,2.0957,2.0949,2.095,2.0947,2.0916,2.0982,2.0883,2.0873,2.0853,2.0839,2.0828,2.0814,2.094,2.094,2.094,2.09,2.0915,2.086,2.0872,2.0851,2.0854,2.0839,2.0835,2.0854,2.0831,2.082,2.0741,2.0723,2.0715,2.07,2.0803,2.0803,2.0802,2.0802,2.079,2.0759,2.0789,2.0746,2.0763,2.0727,2.0729,2.0744,2.0714,2.0749,2.0733,2.0771,2.0701,2.0689,2.0799,2.08,2.08,2.08,2.0801,2.0711,2.0699,2.0697,2.067,2.0648,2.0662,2.0632,2.0648,2.0662,2.0645,2.0638,2.0638,2.0643,2.064,2.064,2.064,2.064,2.0639,2.0639,2.063,2.0629,2.0603,2.0592,2.0583,2.0572,2.0577,2.0568,2.0561,2.0575,2.0575,2.0598,2.0691,2.0716,2.0635,2.0636,2.0636,2.0637,2.0637,2.0516,2.0545,2.0504,2.0495,2.0485,2.0464,2.0485,2.0465,2.046,2.0445,2.0473,2.0538,2.0551,2.0559,2.0579,2.0468,2.0468,2.0468,2.0468,2.045,2.0459,2.0423,2.0407,2.0394,2.0409,2.0365,2.0369,2.0378,2.0376,2.0394,2.0422,2.043,2.0438,2.0448,2.0468,2.0331,2.0331,2.0331,2.0382,2.0391,2.0349,2.036,2.0354,2.035,2.0309,2.0291,2.0306,2.0325,2.0376,2.0381,2.0426,2.044,2.046,2.0477,2.0512,0,0]}]]